Orbital Elements at Epoch 2459000.5 (2020-May-31.0) TDB
Reference: JPL 20 (heliocentric ecliptic J2000)
Element | Value | Uncertainty (1-sigma) | Units |
e | .1656982284791698 | 4.6899e-08 | |
a | 2.736478183827368 | 1.3406e-08 | au |
q | 2.283048596495277 | 1.2785e-07 | au |
i | 8.169329898566557 | 5.603e-06 | deg |
node | 319.2171714157337 | 3.0297e-05 | deg |
peri | 42.91954612381289 | 3.3956e-05 | deg |
M | 57.25890379684963 | 1.3324e-05 | deg |
tp | 2458737.517444866379 (2019-Sep-11.01744487) | 6.1209e-05 | TDB |
period | 1653.432279877361 4.53 | 1.215e-05 3.326e-08 | d yr |
n | .2177289051274008 | 1.6e-09 | deg/d |
Q | 3.189907771159458 | 1.5627e-08 | au |
|
| | Orbit Determination Parameters
Additional Information
|